| time (UTC) | temp C | wind direction | speed KPH | gust KPH | rain 1hr cm | rain 24hr cm | rain mn cm | humidity % | barometer mb |
| 20260507182439 | 25 | 331 | 0.0 | 8.0 | 0.00 | 0.00 | 0.00 | 82 | 1014.9 |
| 20260507181940 | 25 | 194 | 0.0 | 12.9 | 0.00 | 0.00 | 0.00 | 81 | 1014.9 |
| 20260507181931 | 25 | 260 | 0.0 | 12.9 | 0.00 | 0.00 | 0.00 | 82 | 1014.9 |
| 20260507181553 | 25 | 184 | 0.0 | 11.3 | 0.00 | 0.00 | 0.00 | 82 | 1015.2 |
| 20260507180938 | 25 | 296 | 0.0 | 9.7 | 0.00 | 0.00 | 0.00 | 82 | 1014.9 |
| 20260507180433 | 25 | 191 | 0.0 | 9.7 | 0.00 | 0.00 | 0.00 | 83 | 1015.0 |
| 20260507180105 | 25 | 0 | 0.0 | 9.7 | 0.00 | 0.00 | 0.00 | 82 | 1015.3 |
| 20260507175933 | 25 | 257 | 1.6 | 9.7 | 0.00 | 0.00 | 0.00 | 83 | 1015.0 |
| 20260507175655 | 25 | 124 | 0.0 | 8.0 | 0.00 | 0.00 | 0.00 | 83 | 1015.1 |
| 20260507174931 | 25 | 124 | 0.0 | 6.4 | 0.00 | 0.00 | 0.00 | 83 | 1015.2 |
| 20260507174617 | 25 | 0 | 0.0 | 4.8 | 0.00 | 0.00 | 0.00 | 82 | 1015.3 |
| 20260507174431 | 25 | 40 | 0.0 | 6.4 | 0.00 | 0.00 | 0.00 | 83 | 1015.2 |
| 20260507173925 | 25 | 84 | 0.0 | 9.7 | 0.00 | 0.00 | 0.00 | 82 | 1015.3 |
| 20260507173424 | 25 | 252 | 0.0 | 9.7 | 0.00 | 0.00 | 0.00 | 82 | 1015.2 |
| 20260507173048 | 25 | 0 | 0.0 | 8.0 | 0.00 | 0.00 | 0.00 | 81 | 1015.5 |
| 20260507172917 | 25 | 198 | 0.0 | 4.8 | 0.00 | 0.00 | 0.00 | 82 | 1015.1 |
| 20260507172418 | 26 | 73 | 0.0 | 6.4 | 0.00 | 0.00 | 0.00 | 81 | 1015.1 |
| 20260507171903 | 26 | 325 | 0.0 | 11.3 | 0.00 | 0.00 | 0.00 | 81 | 1015.3 |
| 20260507171609 | 25 | 325 | 1.6 | 14.5 | 0.00 | 0.00 | 0.00 | 80 | 1015.4 |
| 20260507171402 | 26 | 118 | 1.6 | 16.1 | 0.00 | 0.00 | 0.00 | 81 | 1015.2 |
| 20260507170902 | 26 | 117 | 0.0 | 16.1 | 0.00 | 0.00 | 0.00 | 80 | 1015.1 |
| 20260507170402 | 26 | 259 | 0.0 | 6.4 | 0.00 | 0.00 | 0.00 | 81 | 1015.0 |
| 20260507170052 | 25 | 0 | 0.0 | 12.9 | 0.00 | 0.00 | 0.00 | 81 | 1015.4 |
| 20260507165902 | 26 | 89 | 0.0 | 12.9 | 0.00 | 0.00 | 0.00 | 81 | 1015.3 |
| 20260507165400 | 26 | 242 | 0.0 | 12.9 | 0.00 | 0.00 | 0.00 | 81 | 1015.3 |
| 20260507164901 | 26 | 15 | 0.0 | 9.7 | 0.00 | 0.00 | 0.00 | 81 | 1015.3 |
| 20260507164556 | 25 | 0 | 0.0 | 9.7 | 0.00 | 0.00 | 0.00 | 80 | 1015.4 |
| 20260507164401 | 25 | 213 | 0.0 | 6.4 | 0.00 | 0.00 | 0.00 | 82 | 1015.2 |
| 20260507163901 | 25 | 125 | 0.0 | 1.6 | 0.00 | 0.00 | 0.00 | 82 | 1015.2 |
| 20260507163400 | 25 | 125 | 0.0 | 1.6 | 0.00 | 0.00 | 0.00 | 83 | 1015.2 |
| 20260507163059 | 25 | 0 | 0.0 | 6.4 | 0.00 | 0.00 | 0.00 | 83 | 1015.4 |
| 20260507162902 | 25 | 222 | 0.0 | 4.8 | 0.00 | 0.00 | 0.00 | 83 | 1015.3 |
| 20260507162400 | 25 | 118 | 0.0 | 4.8 | 0.00 | 0.00 | 0.00 | 83 | 1015.2 |
| 20260507161901 | 25 | 301 | 0.0 | 4.8 | 0.00 | 0.00 | 0.00 | 84 | 1015.1 |
| 20260507161555 | 24 | 0 | 0.0 | 3.2 | 0.00 | 0.00 | 0.00 | 84 | 1015.3 |
| 20260507161401 | 24 | 6 | 0.0 | 4.8 | 0.00 | 0.00 | 0.00 | 84 | 1015.1 |
| 20260507160901 | 24 | 173 | 0.0 | 8.0 | 0.00 | 0.00 | 0.00 | 85 | 1015.1 |
| 20260507160400 | 23 | 173 | 0.0 | 8.0 | 0.00 | 0.00 | 0.00 | 86 | 1015.1 |
| 20260507160112 | 23 | 9 | 0.0 | 8.0 | 0.00 | 0.00 | 0.00 | 85 | 1015.3 |
| 20260507155900 | 23 | 22 | 0.0 | 6.4 | 0.00 | 0.00 | 0.00 | 86 | 1015.1 |
| 20260507155400 | 23 | 39 | 0.0 | 3.2 | 0.00 | 0.00 | 0.00 | 86 | 1015.2 |
| 20260507154900 | 23 | 288 | 0.0 | 3.2 | 0.00 | 0.00 | 0.00 | 86 | 1015.1 |
| 20260507154626 | 23 | 287 | 0.0 | 1.6 | 0.00 | 0.00 | 0.00 | 86 | 1015.1 |
| 20260507154555 | 23 | 0 | 0.0 | 1.6 | 0.00 | 0.00 | 0.00 | 86 | 1015.2 |
| 20260507153903 | 23 | 334 | 0.0 | 4.8 | 0.00 | 0.00 | 0.00 | 87 | 1015.1 |
| 20260507153402 | 23 | 248 | 0.0 | 4.8 | 0.00 | 0.00 | 0.00 | 87 | 1015.0 |
| 20260507153055 | 23 | 0 | 0.0 | 0.0 | 0.00 | 0.00 | 0.00 | 87 | 1015.2 |
| 20260507152902 | 23 | 202 | 0.0 | 0.0 | 0.00 | 0.00 | 0.00 | 87 | 1014.9 |
| 20260507152402 | 23 | 202 | 0.0 | 0.0 | 0.00 | 0.00 | 0.00 | 88 | 1015.0 |
| 20260507151901 | 23 | 295 | 0.0 | 4.8 | 0.00 | 0.00 | 0.00 | 88 | 1014.9 |
| 20260507151558 | 23 | 0 | 0.0 | 3.2 | 0.00 | 0.00 | 0.00 | 88 | 1015.0 |
| 20260507151401 | 23 | 295 | 0.0 | 4.8 | 0.00 | 0.00 | 0.00 | 89 | 1014.9 |
| 20260507151122 | 23 | 190 | 0.0 | 0.0 | 0.00 | 0.00 | 0.00 | 89 | 1014.8 |
| 20260507150401 | 23 | 190 | 0.0 | 0.0 | 0.00 | 0.00 | 0.00 | 89 | 1014.8 |
| 20260507150053 | 23 | 0 | 0.0 | 1.6 | 0.00 | 0.00 | 0.00 | 88 | 1015.0 |
| 20260507145901 | 23 | 190 | 0.0 | 0.0 | 0.00 | 0.00 | 0.00 | 89 | 1014.8 |
| 20260507145400 | 23 | 190 | 0.0 | 1.6 | 0.00 | 0.00 | 0.00 | 89 | 1014.7 |
| 20260507144900 | 23 | 190 | 0.0 | 1.6 | 0.00 | 0.00 | 0.00 | 90 | 1014.7 |
| 20260507144548 | 23 | 0 | 0.0 | 8.0 | 0.00 | 0.00 | 0.00 | 89 | 1014.8 |
| 20260507144401 | 23 | 158 | 0.0 | 6.4 | 0.00 | 0.00 | 0.00 | 90 | 1014.7 |
| 20260507143902 | 23 | 176 | 0.0 | 6.4 | 0.00 | 0.00 | 0.00 | 90 | 1014.5 |
| 20260507143402 | 23 | 15 | 0.0 | 4.8 | 0.00 | 0.00 | 0.00 | 90 | 1014.4 |
| 20260507143105 | 23 | 0 | 0.0 | 4.8 | 0.00 | 0.00 | 0.00 | 90 | 1014.6 |
| 20260507142902 | 23 | 219 | 0.0 | 4.8 | 0.00 | 0.00 | 0.00 | 90 | 1014.5 |
| 20260507142627 | 23 | 18 | 0.0 | 0.0 | 0.00 | 0.00 | 0.00 | 90 | 1014.4 |
| 20260507142125 | 23 | 18 | 0.0 | 0.0 | 0.00 | 0.00 | 0.00 | 89 | 1014.4 |
| 20260507141849 | 23 | 18 | 0.0 | 1.6 | 0.00 | 0.00 | 0.00 | 89 | 1014.5 |
| 20260507141633 | 23 | 0 | 0.0 | 1.6 | 0.00 | 0.00 | 0.00 | 89 | 1014.6 |
| 20260507140903 | 23 | 18 | 0.0 | 3.2 | 0.00 | 0.00 | 0.00 | 89 | 1014.3 |
| 20260507140630 | 23 | 139 | 0.0 | 3.2 | 0.00 | 0.00 | 0.00 | 89 | 1014.2 |
| 20260507140110 | 23 | 0 | 0.0 | 1.6 | 0.00 | 0.00 | 0.00 | 88 | 1014.4 |
| 20260507135902 | 24 | 147 | 0.0 | 0.0 | 0.00 | 0.00 | 0.00 | 89 | 1014.2 |
| 20260507135624 | 24 | 147 | 0.0 | 0.0 | 0.00 | 0.00 | 0.00 | 89 | 1014.1 |
| 20260507134900 | 24 | 147 | 0.0 | 0.0 | 0.00 | 0.00 | 0.00 | 89 | 1013.9 |
| 20260507134629 | 24 | 147 | 0.0 | 0.0 | 0.00 | 0.00 | 0.00 | 89 | 1013.8 |
| 20260507134555 | 23 | 0 | 0.0 | 0.0 | 0.00 | 0.00 | 0.00 | 88 | 1014.0 |
| 20260507133901 | 24 | 147 | 0.0 | 0.0 | 0.00 | 0.00 | 0.00 | 88 | 1013.7 |
| 20260507133401 | 24 | 189 | 0.0 | 0.0 | 0.00 | 0.00 | 0.00 | 88 | 1013.5 |
| 20260507133125 | 24 | 189 | 0.0 | 0.0 | 0.00 | 0.00 | 0.00 | 88 | 1013.4 |
| 20260507133103 | 24 | 0 | 0.0 | 0.0 | 0.00 | 0.00 | 0.00 | 87 | 1013.7 |
| 20260507132401 | 25 | 293 | 0.0 | 3.2 | 0.00 | 0.00 | 0.00 | 87 | 1013.3 |
| 20260507131900 | 25 | 293 | 0.0 | 4.8 | 0.00 | 0.00 | 0.00 | 85 | 1013.1 |
| 20260507131612 | 25 | 0 | 0.0 | 4.8 | 0.00 | 0.00 | 0.00 | 84 | 1013.4 |
| 20260507131401 | 26 | 342 | 0.0 | 4.8 | 0.00 | 0.00 | 0.00 | 84 | 1013.1 |
| 20260507130901 | 27 | 9 | 0.0 | 0.0 | 0.00 | 0.00 | 0.00 | 88 | 1012.9 |
| 20260507130401 | 27 | 9 | 0.0 | 0.0 | 0.00 | 0.00 | 0.00 | 89 | 1012.8 |
| 20260507130106 | 26 | 0 | 0.0 | 1.6 | 0.00 | 0.00 | 0.00 | 88 | 1012.9 |
| 20260507125900 | 27 | 9 | 0.0 | 0.0 | 0.00 | 0.00 | 0.00 | 89 | 1012.6 |
| 20260507125402 | 27 | 315 | 0.0 | 0.0 | 0.00 | 0.00 | 0.00 | 89 | 1012.4 |
| 20260507124900 | 27 | 315 | 0.0 | 0.0 | 0.00 | 0.00 | 0.00 | 89 | 1012.6 |
| 20260507124601 | 26 | 0 | 0.0 | 0.0 | 0.00 | 0.00 | 0.00 | 89 | 1012.7 |
| 20260507124402 | 26 | 315 | 0.0 | 1.6 | 0.00 | 0.00 | 0.00 | 89 | 1012.5 |
| 20260507123901 | 26 | 315 | 0.0 | 1.6 | 0.00 | 0.00 | 0.00 | 89 | 1012.4 |
| 20260507123403 | 26 | 281 | 0.0 | 0.0 | 0.00 | 0.00 | 0.00 | 90 | 1012.3 |
| 20260507123051 | 26 | 0 | 0.0 | 0.0 | 0.00 | 0.00 | 0.00 | 89 | 1012.6 |
| 20260507122902 | 27 | 281 | 0.0 | 0.0 | 0.00 | 0.00 | 0.00 | 89 | 1012.4 |
| 20260507122402 | 27 | 281 | 0.0 | 0.0 | 0.00 | 0.00 | 0.00 | 89 | 1012.4 |
| 20260507121901 | 27 | 281 | 0.0 | 0.0 | 0.00 | 0.00 | 0.00 | 89 | 1012.2 |
| 20260507121556 | 26 | 0 | 0.0 | 0.0 | 0.00 | 0.00 | 0.00 | 89 | 1012.4 |
| 20260507121401 | 27 | 281 | 0.0 | 0.0 | 0.00 | 0.00 | 0.00 | 89 | 1012.2 |
| 20260507121125 | 27 | 281 | 0.0 | 0.0 | 0.00 | 0.00 | 0.00 | 89 | 1012.3 |
| 20260507120401 | 27 | 281 | 0.0 | 0.0 | 0.00 | 0.00 | 0.00 | 89 | 1012.3 |
| 20260507120058 | 26 | 0 | 0.0 | 0.0 | 0.00 | 0.00 | 0.00 | 88 | 1012.4 |
| 20260507115902 | 27 | 281 | 0.0 | 0.0 | 0.00 | 0.00 | 0.00 | 89 | 1012.3 |
| 20260507115402 | 27 | 281 | 0.0 | 0.0 | 0.00 | 0.00 | 0.00 | 89 | 1012.0 |
| 20260507114901 | 27 | 281 | 0.0 | 0.0 | 0.00 | 0.00 | 0.00 | 89 | 1012.0 |
| 20260507114552 | 26 | 0 | 0.0 | 0.0 | 0.00 | 0.00 | 0.00 | 88 | 1012.2 |
| 20260507114402 | 27 | 281 | 0.0 | 0.0 | 0.00 | 0.00 | 0.00 | 89 | 1012.0 |
| 20260507113901 | 27 | 281 | 0.0 | 0.0 | 0.00 | 0.00 | 0.00 | 89 | 1011.9 |
| 20260507113843 | 27 | 281 | 0.0 | 0.0 | 0.00 | 0.00 | 0.00 | 89 | 1011.9 |
| 20260507113122 | 27 | 0 | 0.0 | 0.0 | 0.00 | 0.00 | 0.00 | 88 | 1011.8 |
| 20260507112903 | 27 | 281 | 0.0 | 0.0 | 0.00 | 0.00 | 0.00 | 89 | 1011.7 |
| 20260507112403 | 27 | 281 | 0.0 | 0.0 | 0.00 | 0.00 | 0.00 | 89 | 1011.7 |
| 20260507112123 | 27 | 281 | 0.0 | 0.0 | 0.00 | 0.00 | 0.00 | 89 | 1011.8 |
| 20260507111557 | 27 | 0 | 0.0 | 0.0 | 0.00 | 0.00 | 0.00 | 88 | 1012.1 |
| 20260507111402 | 27 | 281 | 0.0 | 0.0 | 0.00 | 0.00 | 0.00 | 89 | 1011.8 |
| 20260507110901 | 27 | 281 | 0.0 | 0.0 | 0.00 | 0.00 | 0.00 | 89 | 1011.3 |
| 20260507110401 | 27 | 281 | 0.0 | 0.0 | 0.00 | 0.00 | 0.00 | 89 | 1011.1 |
| 20260507110055 | 27 | 0 | 0.0 | 0.0 | 0.00 | 0.00 | 0.00 | 88 | 1011.6 |
| 20260507105901 | 27 | 281 | 0.0 | 0.0 | 0.00 | 0.00 | 0.00 | 89 | 1011.1 |
| 20260507105400 | 27 | 281 | 0.0 | 0.0 | 0.00 | 0.00 | 0.00 | 89 | 1011.2 |
| 20260507104900 | 27 | 281 | 0.0 | 0.0 | 0.00 | 0.00 | 0.00 | 89 | 1011.3 |
| 20260507104559 | 27 | 0 | 0.0 | 0.0 | 0.00 | 0.00 | 0.00 | 88 | 1011.7 |
| 20260507104403 | 27 | 281 | 0.0 | 1.6 | 0.00 | 0.00 | 0.00 | 89 | 1011.3 |
| 20260507103903 | 27 | 281 | 0.0 | 1.6 | 0.00 | 0.00 | 0.00 | 88 | 1011.2 |
| 20260507103625 | 27 | 33 | 0.0 | 0.0 | 0.00 | 0.00 | 0.00 | 88 | 1010.9 |
| 20260507103049 | 27 | 0 | 0.0 | 0.0 | 0.00 | 0.00 | 0.00 | 88 | 1011.0 |
| 20260507102902 | 27 | 33 | 0.0 | 0.0 | 0.00 | 0.00 | 0.00 | 88 | 1010.7 |
| 20260507102402 | 27 | 33 | 0.0 | 0.0 | 0.00 | 0.00 | 0.00 | 88 | 1011.6 |
| 20260507101902 | 27 | 33 | 0.0 | 0.0 | 0.00 | 0.00 | 0.00 | 88 | 1011.7 |
| 20260507101552 | 27 | 0 | 0.0 | 0.0 | 0.00 | 0.00 | 0.00 | 88 | 1011.8 |
| 20260507101402 | 27 | 33 | 0.0 | 0.0 | 0.00 | 0.00 | 0.00 | 88 | 1011.8 |
| 20260507100854 | 27 | 33 | 0.0 | 0.0 | 0.00 | 0.00 | 0.00 | 88 | 1012.0 |
| 20260507100342 | 27 | 33 | 0.0 | 0.0 | 0.00 | 0.00 | 0.00 | 88 | 1011.6 |
| 20260507100056 | 27 | 0 | 0.0 | 0.0 | 0.00 | 0.00 | 0.00 | 88 | 1011.8 |
| 20260507095839 | 27 | 33 | 0.0 | 0.0 | 0.00 | 0.00 | 0.00 | 88 | 1011.7 |
| 20260507095601 | 27 | 33 | 0.0 | 0.0 | 0.00 | 0.00 | 0.00 | 88 | 1011.7 |
| 20260507094838 | 27 | 33 | 0.0 | 0.0 | 0.00 | 0.00 | 0.00 | 88 | 1011.0 |
| 20260507094555 | 27 | 0 | 0.0 | 0.0 | 0.00 | 0.00 | 0.00 | 88 | 1011.1 |
| 20260507094331 | 27 | 33 | 0.0 | 0.0 | 0.00 | 0.00 | 0.00 | 88 | 1010.7 |
| 20260507093830 | 27 | 33 | 0.0 | 0.0 | 0.00 | 0.00 | 0.00 | 88 | 1010.9 |
| 20260507093545 | 27 | 33 | 0.0 | 0.0 | 0.00 | 0.00 | 0.00 | 88 | 1011.2 |
| 20260507093050 | 27 | 0 | 0.0 | 0.0 | 0.00 | 0.00 | 0.00 | 87 | 1011.5 |
| 20260507092813 | 27 | 33 | 0.0 | 0.0 | 0.00 | 0.00 | 0.00 | 88 | 1011.2 |
| 20260507092311 | 27 | 33 | 0.0 | 0.0 | 0.00 | 0.00 | 0.00 | 88 | 1010.9 |
| 20260507091811 | 27 | 33 | 0.0 | 0.0 | 0.00 | 0.00 | 0.00 | 87 | 1010.8 |
| 20260507091550 | 27 | 0 | 0.0 | 0.0 | 0.00 | 0.00 | 0.00 | 87 | 1011.1 |
| 20260507091303 | 27 | 33 | 0.0 | 1.6 | 0.00 | 0.00 | 0.00 | 87 | 1010.8 |
| 20260507091029 | 27 | 33 | 0.0 | 1.6 | 0.00 | 0.00 | 0.00 | 87 | 1010.9 |
| 20260507090302 | 27 | 297 | 0.0 | 1.6 | 0.00 | 0.00 | 0.00 | 87 | 1011.1 |
| 20260507090047 | 27 | 297 | 0.0 | 0.0 | 0.00 | 0.00 | 0.00 | 86 | 1011.4 |
| 20260507085802 | 27 | 216 | 0.0 | 0.0 | 0.00 | 0.00 | 0.00 | 86 | 1011.1 |
| 20260507085524 | 27 | 216 | 0.0 | 0.0 | 0.00 | 0.00 | 0.00 | 86 | 1011.1 |
| 20260507084801 | 27 | 216 | 0.0 | 0.0 | 0.00 | 0.00 | 0.00 | 86 | 1011.1 |
| 20260507084556 | 27 | 0 | 0.0 | 1.6 | 0.00 | 0.00 | 0.00 | 85 | 1011.4 |
| 20260507084302 | 27 | 283 | 0.0 | 0.0 | 0.00 | 0.00 | 0.00 | 85 | 1011.1 |
| 20260507083802 | 28 | 142 | 0.0 | 0.0 | 0.00 | 0.00 | 0.00 | 85 | 1011.3 |
| 20260507083531 | 27 | 142 | 0.0 | 0.0 | 0.00 | 0.00 | 0.00 | 85 | 1011.3 |
| 20260507083047 | 27 | 0 | 0.0 | 0.0 | 0.00 | 0.00 | 0.00 | 85 | 1011.7 |
| 20260507083018 | 27 | 142 | 0.0 | 0.0 | 0.00 | 0.00 | 0.00 | 85 | 1011.7 |
| 20260507082255 | 28 | 142 | 0.0 | 0.0 | 0.00 | 0.00 | 0.00 | 85 | 1011.7 |
| 20260507081748 | 28 | 142 | 0.0 | 0.0 | 0.00 | 0.00 | 0.00 | 85 | 1011.7 |
| 20260507081543 | 27 | 0 | 0.0 | 0.0 | 0.00 | 0.00 | 0.00 | 84 | 1011.9 |
| 20260507081248 | 28 | 142 | 0.0 | 0.0 | 0.00 | 0.00 | 0.00 | 85 | 1011.8 |
| 20260507080741 | 28 | 142 | 0.0 | 0.0 | 0.00 | 0.00 | 0.00 | 85 | 1011.7 |
| 20260507080239 | 28 | 142 | 0.0 | 0.0 | 0.00 | 0.00 | 0.00 | 85 | 1011.7 |
| 20260507080054 | 27 | 0 | 0.0 | 0.0 | 0.00 | 0.00 | 0.00 | 84 | 1011.9 |
| 20260507075735 | 28 | 142 | 0.0 | 0.0 | 0.00 | 0.00 | 0.00 | 85 | 1011.8 |
| 20260507075235 | 28 | 142 | 0.0 | 0.0 | 0.00 | 0.00 | 0.00 | 85 | 1012.0 |
| 20260507074735 | 28 | 142 | 0.0 | 0.0 | 0.00 | 0.00 | 0.00 | 85 | 1011.9 |
| 20260507074548 | 27 | 0 | 0.0 | 0.0 | 0.00 | 0.00 | 0.00 | 84 | 1012.1 |
| 20260507074512 | 28 | 142 | 0.0 | 0.0 | 0.00 | 0.00 | 0.00 | 85 | 1011.8 |
| 20260507074428 | 28 | 142 | 0.0 | 0.0 | 0.00 | 0.00 | 0.00 | 85 | 1011.8 |
| 20260507073226 | 28 | 142 | 0.0 | 0.0 | 0.00 | 0.00 | 0.00 | 85 | 1012.0 |
| 20260507073044 | 27 | 0 | 0.0 | 0.0 | 0.00 | 0.00 | 0.00 | 84 | 1012.2 |
| 20260507072726 | 28 | 142 | 0.0 | 0.0 | 0.00 | 0.00 | 0.00 | 85 | 1011.8 |
| 20260507072445 | 28 | 142 | 0.0 | 0.0 | 0.00 | 0.00 | 0.00 | 85 | 1011.8 |
| 20260507071719 | 28 | 142 | 0.0 | 0.0 | 0.00 | 0.00 | 0.00 | 84 | 1011.6 |
| 20260507071546 | 27 | 0 | 0.0 | 0.0 | 0.00 | 0.00 | 0.00 | 84 | 1011.7 |
| 20260507071204 | 28 | 142 | 0.0 | 0.0 | 0.00 | 0.00 | 0.00 | 84 | 1011.4 |
| 20260507070704 | 28 | 142 | 0.0 | 0.0 | 0.00 | 0.00 | 0.00 | 84 | 1011.4 |
| 20260507070203 | 28 | 142 | 0.0 | 0.0 | 0.00 | 0.00 | 0.00 | 84 | 1011.7 |
| 20260507070103 | 27 | 0 | 0.0 | 0.0 | 0.00 | 0.00 | 0.00 | 84 | 1011.9 |
| 20260507065704 | 28 | 142 | 0.0 | 0.0 | 0.00 | 0.00 | 0.00 | 84 | 1011.8 |
| 20260507065203 | 28 | 142 | 0.0 | 0.0 | 0.00 | 0.00 | 0.00 | 84 | 1011.7 |
| 20260507064702 | 28 | 142 | 0.0 | 0.0 | 0.00 | 0.00 | 0.00 | 85 | 1011.7 |
| 20260507064602 | 27 | 0 | 0.0 | 0.0 | 0.00 | 0.00 | 0.00 | 84 | 1011.9 |
| 20260507064203 | 28 | 142 | 0.0 | 0.0 | 0.00 | 0.00 | 0.00 | 85 | 1011.7 |
| 20260507063703 | 28 | 142 | 0.0 | 0.0 | 0.00 | 0.00 | 0.00 | 85 | 1011.8 |
| 20260507063418 | 28 | 142 | 0.0 | 0.0 | 0.00 | 0.00 | 0.00 | 85 | 1011.8 |
| 20260507063055 | 27 | 0 | 0.0 | 0.0 | 0.00 | 0.00 | 0.00 | 84 | 1012.1 |
| 20260507062650 | 28 | 142 | 0.0 | 0.0 | 0.00 | 0.00 | 0.00 | 85 | 1011.8 |
| 20260507062144 | 28 | 142 | 0.0 | 0.0 | 0.00 | 0.00 | 0.00 | 84 | 1011.6 |
| 20260507061638 | 28 | 142 | 0.0 | 0.0 | 0.00 | 0.00 | 0.00 | 84 | 1011.8 |
| 20260507061551 | 27 | 0 | 0.0 | 0.0 | 0.00 | 0.00 | 0.00 | 83 | 1012.0 |
| 20260507061138 | 28 | 142 | 0.0 | 0.0 | 0.00 | 0.00 | 0.00 | 84 | 1011.8 |
| 20260507060939 | 28 | 142 | 0.0 | 3.2 | 0.00 | 0.00 | 0.00 | 84 | 1011.8 |
| 20260507060137 | 28 | 143 | 0.0 | 3.2 | 0.00 | 0.00 | 0.00 | 83 | 1011.8 |
| 20260507060051 | 27 | 0 | 0.0 | 0.0 | 0.00 | 0.00 | 0.00 | 83 | 1012.0 |
| 20260507055633 | 28 | 311 | 0.0 | 0.0 | 0.00 | 0.00 | 0.00 | 83 | 1011.9 |
| 20260507055132 | 28 | 304 | 0.0 | 0.0 | 0.00 | 0.00 | 0.00 | 83 | 1011.9 |
| 20260507054632 | 28 | 304 | 0.0 | 0.0 | 0.00 | 0.00 | 0.00 | 83 | 1012.0 |
| 20260507054551 | 28 | 0 | 0.0 | 0.0 | 0.00 | 0.00 | 0.00 | 83 | 1012.2 |
| 20260507054130 | 28 | 304 | 0.0 | 1.6 | 0.00 | 0.00 | 0.00 | 83 | 1012.1 |
| 20260507053631 | 28 | 304 | 0.0 | 1.6 | 0.00 | 0.00 | 0.00 | 84 | 1012.0 |
| 20260507053130 | 28 | 89 | 0.0 | 0.0 | 0.00 | 0.00 | 0.00 | 83 | 1011.8 |
| 20260507053047 | 27 | 0 | 0.0 | 0.0 | 0.00 | 0.00 | 0.00 | 83 | 1012.0 |
| 20260507052630 | 28 | 89 | 0.0 | 0.0 | 0.00 | 0.00 | 0.00 | 83 | 1012.0 |
| 20260507052130 | 28 | 89 | 0.0 | 3.2 | 0.00 | 0.00 | 0.00 | 83 | 1011.9 |
| 20260507052116 | 28 | 89 | 0.0 | 3.2 | 0.00 | 0.00 | 0.00 | 83 | 1012.1 |
| 20260507051549 | 28 | 0 | 0.0 | 3.2 | 0.00 | 0.00 | 0.00 | 83 | 1012.2 |
| 20260507051129 | 28 | 203 | 0.0 | 1.6 | 0.00 | 0.00 | 0.00 | 84 | 1012.0 |
| 20260507050630 | 28 | 186 | 0.0 | 1.6 | 0.00 | 0.00 | 0.00 | 83 | 1011.9 |
| 20260507050130 | 28 | 308 | 0.0 | 3.2 | 0.00 | 0.00 | 0.00 | 83 | 1011.9 |
| 20260507050104 | 28 | 0 | 0.0 | 3.2 | 0.00 | 0.00 | 0.00 | 83 | 1012.0 |
| 20260507045630 | 28 | 307 | 0.0 | 3.2 | 0.00 | 0.00 | 0.00 | 84 | 1011.7 |
| 20260507045130 | 28 | 190 | 0.0 | 3.2 | 0.00 | 0.00 | 0.00 | 83 | 1011.7 |
| 20260507045111 | 28 | 231 | 0.0 | 3.2 | 0.00 | 0.00 | 0.00 | 83 | 1011.7 |
| 20260507044554 | 28 | 0 | 0.0 | 3.2 | 0.00 | 0.00 | 0.00 | 83 | 1011.9 |
| 20260507044129 | 28 | 266 | 0.0 | 0.0 | 0.00 | 0.00 | 0.00 | 83 | 1011.7 |
| 20260507043631 | 28 | 266 | 0.0 | 1.6 | 0.00 | 0.00 | 0.00 | 83 | 1011.7 |
| 20260507043132 | 28 | 266 | 0.0 | 1.6 | 0.00 | 0.00 | 0.00 | 83 | 1011.7 |
| 20260507043050 | 28 | 0 | 0.0 | 3.2 | 0.00 | 0.00 | 0.00 | 83 | 1011.8 |
| 20260507042631 | 28 | 237 | 0.0 | 3.2 | 0.00 | 0.00 | 0.00 | 83 | 1011.6 |
| 20260507042131 | 28 | 237 | 0.0 | 3.2 | 0.00 | 0.00 | 0.00 | 83 | 1011.4 |
| 20260507041632 | 28 | 323 | 0.0 | 1.6 | 0.00 | 0.00 | 0.00 | 83 | 1011.3 |
| 20260507041552 | 28 | 0 | 0.0 | 3.2 | 0.00 | 0.00 | 0.00 | 82 | 1011.6 |
| 20260507041129 | 28 | 131 | 0.0 | 6.4 | 0.00 | 0.00 | 0.00 | 83 | 1011.4 |
| 20260507040631 | 28 | 123 | 0.0 | 9.7 | 0.00 | 0.00 | 0.00 | 83 | 1011.3 |
| 20260507040130 | 28 | 192 | 1.6 | 9.7 | 0.00 | 0.00 | 0.00 | 82 | 1011.2 |
| 20260507040053 | 28 | 0 | 0.0 | 6.4 | 0.00 | 0.00 | 0.00 | 82 | 1011.4 |
| 20260507035630 | 28 | 77 | 1.6 | 6.4 | 0.00 | 0.00 | 0.00 | 82 | 1011.1 |
| 20260507035418 | 28 | 159 | 0.0 | 9.7 | 0.00 | 0.00 | 0.00 | 82 | 1011.1 |
| 20260507034629 | 28 | 200 | 1.6 | 9.7 | 0.00 | 0.00 | 0.00 | 81 | 1010.9 |
| 20260507034546 | 28 | 316 | 0.0 | 3.2 | 0.00 | 0.00 | 0.00 | 81 | 1011.3 |
| 20260507034130 | 28 | 349 | 0.0 | 6.4 | 0.00 | 0.00 | 0.00 | 81 | 1010.9 |
| 20260507033630 | 28 | 232 | 0.0 | 6.4 | 0.00 | 0.00 | 0.00 | 81 | 1010.8 |
| 20260507033131 | 29 | 109 | 0.0 | 3.2 | 0.00 | 0.00 | 0.00 | 80 | 1010.7 |
| 20260507033049 | 28 | 0 | 0.0 | 6.4 | 0.00 | 0.00 | 0.00 | 80 | 1011.1 |
| 20260507032630 | 29 | 59 | 0.0 | 6.4 | 0.00 | 0.00 | 0.00 | 80 | 1010.7 |
| 20260507032130 | 29 | 101 | 1.6 | 8.0 | 0.00 | 0.00 | 0.00 | 80 | 1010.8 |
| 20260507031630 | 29 | 321 | 1.6 | 9.7 | 0.00 | 0.00 | 0.00 | 79 | 1010.7 |
| 20260507031553 | 29 | 0 | 0.0 | 8.0 | 0.00 | 0.00 | 0.00 | 79 | 1010.9 |
| 20260507031129 | 29 | 78 | 1.6 | 9.7 | 0.00 | 0.00 | 0.00 | 79 | 1010.6 |
| 20260507030630 | 29 | 130 | 3.2 | 12.9 | 0.00 | 0.00 | 0.00 | 79 | 1010.5 |
| 20260507030131 | 30 | 276 | 1.6 | 12.9 | 0.00 | 0.00 | 0.00 | 78 | 1010.4 |
| 20260507030050 | 29 | 0 | 1.6 | 12.9 | 0.00 | 0.00 | 0.00 | 78 | 1010.7 |
| 20260507025900 | 30 | 35 | 1.6 | 9.7 | 0.00 | 0.00 | 0.00 | 78 | 1010.2 |
| 20260507025130 | 30 | 126 | 3.2 | 8.0 | 0.00 | 0.00 | 0.00 | 77 | 1010.2 |
| 20260507024630 | 30 | 154 | 1.6 | 12.9 | 0.00 | 0.00 | 0.00 | 77 | 1010.0 |
| 20260507024550 | 30 | 0 | 0.0 | 12.9 | 0.00 | 0.00 | 0.00 | 76 | 1010.2 |
| 20260507024130 | 30 | 276 | 1.6 | 16.1 | 0.00 | 0.00 | 0.00 | 76 | 1009.9 |
| 20260507023632 | 30 | 159 | 0.0 | 16.1 | 0.00 | 0.00 | 0.00 | 76 | 1009.8 |
| 20260507023131 | 30 | 95 | 0.0 | 14.5 | 0.00 | 0.00 | 0.00 | 75 | 1009.7 |
| 20260507023048 | 30 | 224 | 3.2 | 14.5 | 0.00 | 0.00 | 0.00 | 75 | 1009.9 |
| 20260507022630 | 30 | 52 | 1.6 | 14.5 | 0.00 | 0.00 | 0.00 | 75 | 1009.4 |
| 20260507022130 | 30 | 79 | 1.6 | 14.5 | 0.00 | 0.00 | 0.00 | 74 | 1009.2 |
| 20260507021630 | 31 | 346 | 3.2 | 11.3 | 0.00 | 0.00 | 0.00 | 73 | 1009.2 |
| 20260507021557 | 30 | 226 | 0.0 | 9.7 | 0.00 | 0.00 | 0.00 | 73 | 1009.5 |
| 20260507021354 | 31 | 308 | 1.6 | 9.7 | 0.00 | 0.00 | 0.00 | 73 | 1009.1 |
| 20260507020852 | 31 | 165 | 1.6 | 12.9 | 0.00 | 0.00 | 0.00 | 72 | 1008.9 |
| 20260507020131 | 31 | 157 | 3.2 | 12.9 | 0.00 | 0.00 | 0.00 | 72 | 1008.9 |
| 20260507020048 | 31 | 231 | 0.0 | 11.3 | 0.00 | 0.00 | 0.00 | 71 | 1009.2 |
| 20260507015630 | 31 | 302 | 0.0 | 9.7 | 0.00 | 0.00 | 0.00 | 71 | 1008.8 |
| 20260507015130 | 31 | 275 | 1.6 | 9.7 | 0.00 | 0.00 | 0.00 | 70 | 1008.7 |
| 20260507014629 | 32 | 238 | 0.0 | 12.9 | 0.00 | 0.00 | 0.00 | 69 | 1008.6 |
| 20260507014547 | 31 | 120 | 1.6 | 12.9 | 0.00 | 0.00 | 0.00 | 69 | 1008.8 |
| 20260507014130 | 32 | 27 | 1.6 | 12.9 | 0.00 | 0.00 | 0.00 | 69 | 1008.4 |
| 20260507013630 | 32 | 281 | 1.6 | 14.5 | 0.00 | 0.00 | 0.00 | 69 | 1008.3 |
| 20260507013132 | 32 | 181 | 4.8 | 14.5 | 0.00 | 0.00 | 0.00 | 69 | 1008.2 |
| 20260507013050 | 32 | 338 | 6.4 | 16.1 | 0.00 | 0.00 | 0.00 | 69 | 1008.4 |
| 20260507012631 | 32 | 160 | 3.2 | 12.9 | 0.00 | 0.00 | 0.00 | 71 | 1008.0 |
| 20260507012131 | 32 | 51 | 0.0 | 1.6 | 0.00 | 0.00 | 0.00 | 72 | 1008.0 |
| 20260507011631 | 32 | 174 | 0.0 | 6.4 | 0.00 | 0.00 | 0.00 | 71 | 1007.8 |
| 20260507011550 | 32 | 0 | 0.0 | 8.0 | 0.00 | 0.00 | 0.00 | 71 | 1008.0 |
| 20260507011132 | 32 | 174 | 0.0 | 8.0 | 0.00 | 0.00 | 0.00 | 71 | 1007.6 |
| 20260507010630 | 32 | 32 | 1.6 | 9.7 | 0.00 | 0.00 | 0.00 | 71 | 1007.6 |
| 20260507010130 | 32 | 203 | 0.0 | 9.7 | 0.00 | 0.00 | 0.00 | 71 | 1007.5 |
| 20260507010050 | 32 | 0 | 0.0 | 8.0 | 0.00 | 0.00 | 0.00 | 70 | 1007.6 |
| 20260507005900 | 32 | 52 | 1.6 | 6.4 | 0.00 | 0.00 | 0.00 | 70 | 1007.4 |
| 20260507005354 | 33 | 232 | 0.0 | 11.3 | 0.00 | 0.00 | 0.00 | 70 | 1007.3 |
| 20260507004630 | 33 | 277 | 1.6 | 11.3 | 0.00 | 0.00 | 0.00 | 69 | 1007.3 |
| 20260507004550 | 33 | 117 | 1.6 | 11.3 | 0.00 | 0.00 | 0.00 | 69 | 1007.3 |
| 20260507004129 | 33 | 96 | 1.6 | 9.7 | 0.00 | 0.00 | 0.00 | 68 | 1007.0 |
| 20260507003629 | 33 | 52 | 3.2 | 9.7 | 0.00 | 0.00 | 0.00 | 67 | 1007.0 |
| 20260507003131 | 34 | 10 | 0.0 | 6.4 | 0.00 | 0.00 | 0.00 | 67 | 1007.0 |
| 20260507003049 | 33 | 0 | 0.0 | 16.1 | 0.00 | 0.00 | 0.00 | 66 | 1007.2 |
| 20260507002630 | 34 | 237 | 0.0 | 11.3 | 0.00 | 0.00 | 0.00 | 66 | 1006.9 |
| 20260507002130 | 35 | 319 | 1.6 | 11.3 | 0.00 | 0.00 | 0.00 | 65 | 1006.7 |
| 20260507001630 | 35 | 99 | 1.6 | 9.7 | 0.00 | 0.00 | 0.00 | 63 | 1006.7 |
| 20260507001551 | 35 | 195 | 0.0 | 6.4 | 0.00 | 0.00 | 0.00 | 62 | 1007.0 |
| 20260507001130 | 36 | 171 | 1.6 | 4.8 | 0.00 | 0.00 | 0.00 | 59 | 1006.5 |
| 20260507000852 | 36 | 273 | 0.0 | 1.6 | 0.00 | 0.00 | 0.00 | 56 | 1006.5 |
| 20260507000420 | 36 | 215 | 0.0 | 0.0 | 0.00 | 0.00 | 0.00 | 55 | 1006.4 |
| 20260507000054 | 36 | 0 | 0.0 | 1.6 | 0.00 | 0.00 | 0.00 | 54 | 1006.7 |
| 20260506235621 | 36 | 252 | 0.0 | 0.0 | 0.00 | 0.00 | 0.00 | 54 | 1006.3 |
| 20260506235121 | 36 | 172 | 0.0 | 1.6 | 0.00 | 0.00 | 0.00 | 54 | 1006.3 |
| 20260506234619 | 37 | 172 | 0.0 | 1.6 | 0.00 | 0.00 | 0.00 | 53 | 1006.3 |
| 20260506234607 | 36 | 0 | 0.0 | 1.6 | 0.00 | 0.00 | 0.00 | 52 | 1006.5 |
| 20260506234120 | 37 | 165 | 0.0 | 0.0 | 0.00 | 0.00 | 0.00 | 53 | 1006.2 |
| 20260506233618 | 37 | 165 | 0.0 | 0.0 | 0.00 | 0.00 | 0.00 | 53 | 1006.2 |
| 20260506233116 | 37 | 165 | 0.0 | 0.0 | 0.00 | 0.00 | 0.00 | 53 | 1006.2 |
| 20260506233047 | 37 | 0 | 0.0 | 0.0 | 0.00 | 0.00 | 0.00 | 52 | 1006.5 |
| 20260506232617 | 37 | 165 | 0.0 | 0.0 | 0.00 | 0.00 | 0.00 | 53 | 1006.3 |
| 20260506232339 | 37 | 230 | 0.0 | 0.0 | 0.00 | 0.00 | 0.00 | 52 | 1006.1 |
| 20260506231611 | 38 | 230 | 0.0 | 0.0 | 0.00 | 0.00 | 0.00 | 51 | 1006.0 |
| 20260506231550 | 37 | 0 | 0.0 | 0.0 | 0.00 | 0.00 | 0.00 | 50 | 1006.2 |
| 20260506231111 | 38 | 230 | 0.0 | 0.0 | 0.00 | 0.00 | 0.00 | 52 | 1006.0 |
| 20260506230602 | 38 | 230 | 0.0 | 0.0 | 0.00 | 0.00 | 0.00 | 52 | 1005.9 |
| 20260506230103 | 37 | 230 | 0.0 | 3.2 | 0.00 | 0.00 | 0.00 | 52 | 1005.9 |
| 20260506230057 | 37 | 0 | 0.0 | 1.6 | 0.00 | 0.00 | 0.00 | 52 | 1006.1 |
| 20260506225602 | 37 | 230 | 0.0 | 3.2 | 0.00 | 0.00 | 0.00 | 53 | 1005.8 |
| 20260506225102 | 37 | 283 | 0.0 | 1.6 | 0.00 | 0.00 | 0.00 | 52 | 1005.8 |
| 20260506224602 | 37 | 58 | 0.0 | 0.0 | 0.00 | 0.00 | 0.00 | 52 | 1005.9 |
| 20260506224550 | 37 | 0 | 0.0 | 1.6 | 0.00 | 0.00 | 0.00 | 52 | 1006.1 |
| 20260506224102 | 37 | 58 | 0.0 | 0.0 | 0.00 | 0.00 | 0.00 | 53 | 1006.0 |
| 20260506223601 | 37 | 245 | 0.0 | 0.0 | 0.00 | 0.00 | 0.00 | 52 | 1005.9 |
| 20260506223101 | 37 | 202 | 0.0 | 0.0 | 0.00 | 0.00 | 0.00 | 52 | 1005.9 |
| 20260506223058 | 37 | 0 | 0.0 | 0.0 | 0.00 | 0.00 | 0.00 | 51 | 1006.1 |
| 20260506222604 | 37 | 202 | 0.0 | 0.0 | 0.00 | 0.00 | 0.00 | 53 | 1005.9 |
| 20260506222103 | 38 | 161 | 0.0 | 0.0 | 0.00 | 0.00 | 0.00 | 50 | 1006.0 |
| 20260506221604 | 38 | 169 | 0.0 | 0.0 | 0.00 | 0.00 | 0.00 | 53 | 1006.1 |
| 20260506221551 | 38 | 0 | 0.0 | 0.0 | 0.00 | 0.00 | 0.00 | 52 | 1006.2 |
| 20260506221323 | 38 | 169 | 0.0 | 0.0 | 0.00 | 0.00 | 0.00 | 51 | 1006.1 |
| 20260506220828 | 38 | 169 | 0.0 | 1.6 | 0.00 | 0.00 | 0.00 | 52 | 1006.2 |
| 20260506220049 | 38 | 0 | 0.0 | 1.6 | 0.00 | 0.00 | 0.00 | 51 | 1006.5 |
| 20260506215601 | 38 | 79 | 0.0 | 1.6 | 0.00 | 0.00 | 0.00 | 52 | 1006.2 |
| 20260506215102 | 38 | 253 | 0.0 | 1.6 | 0.00 | 0.00 | 0.00 | 52 | 1006.2 |
| 20260506214602 | 38 | 253 | 0.0 | 1.6 | 0.00 | 0.00 | 0.00 | 52 | 1006.3 |
| 20260506214549 | 38 | 0 | 0.0 | 1.6 | 0.00 | 0.00 | 0.00 | 51 | 1006.5 |
| 20260506214101 | 38 | 244 | 0.0 | 1.6 | 0.00 | 0.00 | 0.00 | 52 | 1006.3 |
| 20260506214051 | 38 | 212 | 0.0 | 0.0 | 0.00 | 0.00 | 0.00 | 53 | 1006.3 |
| 20260506213102 | 38 | 170 | 0.0 | 1.6 | 0.00 | 0.00 | 0.00 | 52 | 1006.2 |
| 20260506213053 | 38 | 0 | 0.0 | 0.0 | 0.00 | 0.00 | 0.00 | 52 | 1006.5 |
| 20260506212604 | 38 | 170 | 0.0 | 1.6 | 0.00 | 0.00 | 0.00 | 53 | 1006.3 |
| 20260506212103 | 38 | 334 | 0.0 | 1.6 | 0.00 | 0.00 | 0.00 | 52 | 1006.4 |
| 20260506211825 | 38 | 155 | 0.0 | 1.6 | 0.00 | 0.00 | 0.00 | 51 | 1006.3 |
| 20260506211549 | 38 | 0 | 0.0 | 1.6 | 0.00 | 0.00 | 0.00 | 50 | 1006.6 |
| 20260506211116 | 38 | 142 | 0.0 | 1.6 | 0.00 | 0.00 | 0.00 | 51 | 1006.4 |
| 20260506210604 | 38 | 311 | 0.0 | 0.0 | 0.00 | 0.00 | 0.00 | 51 | 1006.4 |
| 20260506210110 | 38 | 122 | 0.0 | 1.6 | 0.00 | 0.00 | 0.00 | 52 | 1006.4 |
| 20260506210051 | 38 | 0 | 0.0 | 0.0 | 0.00 | 0.00 | 0.00 | 52 | 1006.7 |
| 20260506205604 | 38 | 122 | 0.0 | 1.6 | 0.00 | 0.00 | 0.00 | 52 | 1006.7 |
| 20260506205104 | 38 | 194 | 0.0 | 0.0 | 0.00 | 0.00 | 0.00 | 53 | 1006.7 |
| 20260506204602 | 37 | 194 | 0.0 | 0.0 | 0.00 | 0.00 | 0.00 | 52 | 1006.8 |
| 20260506204556 | 37 | 0 | 0.0 | 4.8 | 0.00 | 0.00 | 0.00 | 52 | 1007.0 |
| 20260506204321 | 37 | 105 | 0.0 | 4.8 | 0.00 | 0.00 | 0.00 | 52 | 1006.7 |
| 20260506203602 | 38 | 211 | 0.0 | 4.8 | 0.00 | 0.00 | 0.00 | 52 | 1006.9 |
| 20260506203327 | 38 | 321 | 0.0 | 0.0 | 0.00 | 0.00 | 0.00 | 55 | 1006.9 |
| 20260506203047 | 38 | 0 | 0.0 | 0.0 | 0.00 | 0.00 | 0.00 | 55 | 1007.1 |
| 20260506202604 | 37 | 321 | 0.0 | 0.0 | 0.00 | 0.00 | 0.00 | 52 | 1006.9 |
| 20260506202104 | 37 | 321 | 0.0 | 0.0 | 0.00 | 0.00 | 0.00 | 53 | 1007.0 |
| 20260506201604 | 37 | 290 | 0.0 | 0.0 | 0.00 | 0.00 | 0.00 | 52 | 1007.0 |
| 20260506201543 | 37 | 0 | 0.0 | 0.0 | 0.00 | 0.00 | 0.00 | 52 | 1007.3 |
| 20260506201334 | 37 | 152 | 0.0 | 0.0 | 0.00 | 0.00 | 0.00 | 53 | 1007.1 |
| 20260506200603 | 37 | 152 | 0.0 | 1.6 | 0.00 | 0.00 | 0.00 | 53 | 1007.1 |
| 20260506200107 | 37 | 0 | 0.0 | 1.6 | 0.00 | 0.00 | 0.00 | 55 | 1007.5 |
| 20260506200104 | 37 | 152 | 0.0 | 1.6 | 0.00 | 0.00 | 0.00 | 55 | 1007.1 |
| 20260506195603 | 37 | 139 | 0.0 | 1.6 | 0.00 | 0.00 | 0.00 | 55 | 1007.2 |
| 20260506195121 | 37 | 252 | 0.0 | 0.0 | 0.00 | 0.00 | 0.00 | 57 | 1007.3 |
| 20260506194603 | 37 | 174 | 0.0 | 1.6 | 0.00 | 0.00 | 0.00 | 54 | 1007.4 |
| 20260506194558 | 37 | 0 | 0.0 | 1.6 | 0.00 | 0.00 | 0.00 | 53 | 1007.6 |
| 20260506194103 | 37 | 174 | 0.0 | 1.6 | 0.00 | 0.00 | 0.00 | 54 | 1007.5 |
| 20260506193603 | 37 | 229 | 0.0 | 1.6 | 0.00 | 0.00 | 0.00 | 56 | 1007.5 |
| 20260506193103 | 37 | 229 | 0.0 | 1.6 | 0.00 | 0.00 | 0.00 | 54 | 1007.7 |
| 20260506193052 | 37 | 0 | 0.0 | 1.6 | 0.00 | 0.00 | 0.00 | 53 | 1008.1 |
| 20260506192824 | 37 | 187 | 0.0 | 0.0 | 0.00 | 0.00 | 0.00 | 56 | 1007.9 |
| 20260506192117 | 36 | 187 | 0.0 | 0.0 | 0.00 | 0.00 | 0.00 | 56 | 1007.8 |
| 20260506191604 | 36 | 167 | 0.0 | 0.0 | 0.00 | 0.00 | 0.00 | 57 | 1007.8 |
| 20260506191547 | 36 | 0 | 0.0 | 0.0 | 0.00 | 0.00 | 0.00 | 58 | 1008.1 |
| 20260506191117 | 36 | 167 | 0.0 | 0.0 | 0.00 | 0.00 | 0.00 | 59 | 1007.8 |
| 20260506190603 | 35 | 167 | 0.0 | 0.0 | 0.00 | 0.00 | 0.00 | 59 | 1008.0 |
| 20260506190107 | 35 | 167 | 0.0 | 0.0 | 0.00 | 0.00 | 0.00 | 60 | 1008.1 |
| 20260506190053 | 35 | 0 | 0.0 | 1.6 | 0.00 | 0.00 | 0.00 | 59 | 1008.4 |
| 20260506185602 | 35 | 167 | 0.0 | 1.6 | 0.00 | 0.00 | 0.00 | 62 | 1008.2 |
| 20260506185102 | 35 | 167 | 0.0 | 9.7 | 0.00 | 0.00 | 0.00 | 61 | 1008.2 |
| 20260506184602 | 34 | 127 | 0.0 | 9.7 | 0.00 | 0.00 | 0.00 | 64 | 1008.2 |
| 20260506184545 | 34 | 0 | 0.0 | 8.0 | 0.00 | 0.00 | 0.00 | 64 | 1008.5 |
| 20260506184102 | 35 | 311 | 0.0 | 8.0 | 0.00 | 0.00 | 0.00 | 61 | 1008.3 |
| 20260506183602 | 34 | 255 | 0.0 | 4.8 | 0.00 | 0.00 | 0.00 | 62 | 1008.3 |
| 20260506183102 | 34 | 0 | 0.0 | 4.8 | 0.00 | 0.00 | 0.00 | 62 | 1008.7 |